Location: Riedlingen
(48.1569°N, 9.4757°E)
Time: 22:32:23
(UTC+02:00)

ISS - Visible Passes

Search period start: 26 July 2017 00:00
Search period end: 05 August 2017 00:00
Orbit: 400 x 408 km, 51.6° (Epoch: 27 July)

Date Brightness Start Highest point End Pass type
(mag) Time Alt. Az. Time Alt. Az. Time Alt. Az.
26 Jul -2.6 00:51:48 10° WNW 00:54:56 43° N 00:56:43 21° ENE visible
26 Jul -1.6 02:28:23 10° WNW 02:29:15 17° WNW 02:29:15 17° WNW visible
26 Jul -3.9 22:22:36 10° WSW 22:25:51 84° SSE 22:29:07 10° ENE visible
26 Jul -2.7 23:59:23 10° WNW 00:02:31 44° N 00:05:20 12° ENE visible
27 Jul -2.2 01:36:04 10° WNW 01:37:55 30° NW 01:37:55 30° NW visible
27 Jul -2.9 23:06:56 10° W 23:10:06 49° N 23:13:18 10° ENE visible
28 Jul -3.0 00:43:44 10° WNW 00:46:55 48° N 00:46:58 48° NNE visible
28 Jul -3.3 22:14:29 10° W 22:17:43 62° NNW 22:20:57 10° ENE visible
28 Jul -2.7 23:51:21 10° WNW 23:54:30 43° N 23:56:08 23° ENE visible
29 Jul -1.4 01:27:54 10° WNW 01:28:45 17° WNW 01:28:45 17° WNW visible
29 Jul -2.6 22:58:54 10° WNW 23:02:02 43° N 23:05:11 10° ENE visible
30 Jul -2.8 00:35:33 10° WNW 00:37:58 44° NW 00:37:58 44° NW visible
30 Jul -2.8 22:06:25 10° W 22:09:35 47° N 22:12:45 10° ENE visible
30 Jul -3.1 23:43:11 10° WNW 23:46:24 51° NNE 23:47:12 39° ENE visible
31 Jul -0.9 01:19:43 10° WNW 01:19:49 11° WNW 01:19:49 11° WNW visible
31 Jul -2.8 22:50:47 10° WNW 22:53:56 44° N 22:56:28 14° ENE visible
01 Aug -2.2 00:27:18 10° WNW 00:29:05 29° WNW 00:29:05 29° WNW visible
01 Aug -2.7 21:58:18 10° WNW 22:01:27 42° N 22:04:35 10° ENE visible
01 Aug -3.8 23:34:55 10° WNW 23:38:11 74° NNE 23:38:22 71° NE visible
02 Aug -3.3 22:42:32 10° WNW 22:45:44 55° NNE 22:47:40 21° E visible
03 Aug -1.6 00:19:05 10° WNW 00:20:18 20° W 00:20:18 20° W visible
03 Aug -2.9 21:50:05 10° WNW 21:53:15 46° N 21:56:25 10° E visible
03 Aug -3.7 23:26:36 10° WNW 23:29:36 62° WSW 23:29:36 62° WSW visible
04 Aug -3.9 22:34:10 10° WNW 22:37:26 83° NNE 22:38:56 29° ESE visible
